Location: Unspecified
(43.4354°N, 0.0000°E)
Time: 07:37:20
(UTC+00:00)

A-11 Canister half - Pass Details

Date: 25 June 2019
Orbit: 1514 x 1685 km, 47.2° (Epoch: 17 July)

Event Time Altitude Azimuth Distance (km) Brightness Sun altitude
Rises 14:28:18 0° 290° (WNW) 4,842 12.0 54.0°
Reaches altitude 10° 14:31:28 10° 291° (WNW) 3,832 11.7 53.5°
Maximum altitude 14:41:14 90° 9° (N) 1,570 10.1 51.8°
Drops below altitude 10° 14:50:37 10° 114° (ESE) 3,699 10.8 50.2°
Sets 14:53:37 0° 114° (ESE) 4,667 11.2 49.7°
